DECAYED

CZ-3B R/B, 62189 (Decayed)

Orbit data source: Space-Track

CZ-3B R/B, 62189 was space debris originally from a launch on Tue, 03 Dec 2024 UTC launched from the Xichang Space Center, China (XSC). Debris objects in space refer to the collection of defunct objects orbiting the Earth. Examples of debris include non-operational satellites, rocket bodies, and fragments generated from explosions, collisions, or faulty payload assembly.

Loading next visibility...
Identifier
62189, 2024-227B
Orbit
Decayed
Country
Flag of CNCN / PRC
Related business
Manufacturer
CALT
Mission
Decayed spacecraft
Bus & Motor
CZ-3A STAGE 3, Unknown motor
Mass
~2,800 kg wet, ~2,800 kg dry
Launch date (UTC)
2024-12-03 (1 year ago)
Launch vehicle
Unknown
Launch site
Xichang Space Center, China (XSC)
Object type
Payload
Rocket body
Debris
Shape & HBR
Cyl + 1 Nozzle, 6.2 m
Radar Cross Section
32.704 m², Large (>1 m²)

Expand to show TLE details & history
Last TLE update: 1 year ago

TLE from 1 year ago
0 CZ-3B R/B
1 62189U 24227B   25052.03828810 -.00001123  71063-5  00000+0 0  9996
2 62189  51.1975  84.9873 3177569 246.9654  81.8039  9.34586791  1663
Epoch: 2025-02-21T00:55Z
TLE epoch observation values (Epoch: 2025-02-21T00:55:08.091Z)
Latitude
3.45266°
Longitude
-77.23162°
Altitude
3,654.199 km
Speed
6.133 km/s
True Right ascension
05h 51m 01s
True Declination
3° 26' 17"
Sunlit
Object was in daylight at epoch
Visualization orbit readout
Latitude
Unknown
Longitude
Unknown
Altitude
Unknown
Speed
Unknown
Apparent Right ascension
Unknown
Apparent Declination
Unknown
Sunlit
N/A
Visualization observer readout
Local Sidereal Time
19:47:40
Azimuth
Unknown
Elevation
Unknown
Doppler factor
Unknown
Orbital elements
Apogee altitude
6,168.086 km
Perigee altitude
117.427 km
Semi-major axis
9,520.894 km
Eccentricity
0.31776
Inclination
51.1975°
RAAN
84.9873°
Arg. of periapsis
246.9654°
True anomaly
117.52877°
Mean anomaly
81.8039°
Eccentric anomaly
99.74721°
Mean motion
2.33629 °/min
Orbital period
154.09 mins
BSTAR
0
Loading maneuver chart data...
Computing Atmospheric mass density...
Loading historical data...
Loading historical data...
Loading historical data...
Loading historical data...
Loading historical data...
Loading historical data...
Loading historical data...
Other satellites on launch #227 in the year 2024 (2024-12-03 UTC)

Documentation

Showing up to 5 results
|